sat.trackr.live / text

‹ back to catalog

STARLINK-11072 [DTC]

NORAD 58705 · 2024-002A

PAYLOAD ACTIVE UNKNOWN

§ Identity

Operator
Country
US
Launch date
2024-01-03
Launch site
AFWTR
Launch vehicle
Mass (kg)
RCS (m²)

Purposes: comms

External: N2YO · Heavens-Above · Gunter

§ Orbital elements

Epoch: 2026-05-24T18:00:55.581120Z

Period
91.74 min
Inclination
53.1592°
Eccentricity
0.0001026
Mean motion
15.69704646 rev/d
Perigee alt
359.1 km
Apogee alt
360.4 km
Semi-major
6,737.9 km
B*
1.0172e-5
RAAN
259.0620°
Arg perigee
92.5372°
Mean anomaly
267.5764°
Rev number
13,838

§ Raw data

STARLINK-11072 [DTC]1 58705U 24002A   26144.75064330  .00000644  00000+0  10172-4 0  99962 58705  53.1592 259.0620 0001026  92.5372 267.5764 15.69704646138381

JSON: /api/v1/satellites/58705 · /tle

For live sub-satellite position, see the globe view (requires WebGL).

§ Visibility from observer

Set your observer location to see the next 7 days of passes ≥ 10°. The values pass through the URL so the page stays shareable.

No JS? Fill the form by hand. The geolocation button needs JavaScript.